DW2513 Weather Reports


Display with metric or nautical units.
time (UTC)temp
F
wind
direction
speed
MPH
gust
MPH
rain 1hr
in
rain 24hr
in
rain mn
in
humidity
%
barometer
mb
20260901141805 60 296 0.0 0.0 0.00 0.22 0.22 86 1014.1
20260901141304 60 296 0.0 0.0 0.00 0.22 0.22 86 1014.1
20260901135305 60 302 0.0 3.0 0.02 0.22 0.22 86 1014.1
20260901133805 60 321 0.0 0.0 0.04 0.22 0.22 86 1014.1
20260901132307 59 321 0.0 0.0 0.06 0.22 0.22 85 1014.2
20260901130304 59 34 0.0 0.0 0.08 0.21 0.21 85 1014.2
20260901125308 59 34 0.0 0.0 0.09 0.20 0.20 84 1014.2
20260901122805 59 34 0.0 0.0 0.10 0.17 0.17 84 1014.7
20260901121804 59 34 0.0 0.0 0.09 0.15 0.15 83 1014.7
20260901121305 59 34 0.0 0.0 0.10 0.15 0.15 83 1014.7
20260901120805 59 330 0.0 3.0 0.09 0.14 0.14 83 1014.7
20260901120305 59 304 1.0 3.0 0.09 0.13 0.13 83 1014.7
20260901115805 59 325 0.0 0.0 0.08 0.12 0.12 82 1014.6
20260901114805 59 325 0.0 0.0 0.08 0.10 0.10 82 1014.6
20260901112805 60 325 0.0 0.0 0.07 0.07 0.07 81 1014.6
20260901111804 60 325 0.0 0.0 0.06 0.06 0.06 81 1014.6
20260901111304 60 325 0.0 0.0 0.05 0.05 0.05 80 1014.6
20260901110804 60 325 0.0 0.0 0.05 0.05 0.05 79 1014.6
20260901110304 60 325 0.0 0.0 0.04 0.04 0.04 79 1014.4
20260901103305 61 325 0.0 0.0 0.00 0.00 0.00 75 1014.0
20260901102805 61 325 0.0 0.0 0.00 0.00 0.00 75 1014.0
20260901101805 61 323 0.0 0.0 0.00 0.00 0.00 75 1014.0
20260901100805 61 301 0.0 0.0 0.00 0.00 0.00 74 1013.6
20260901100305 61 301 0.0 0.0 0.00 0.00 0.00 74 1013.6
20260901095306 61 301 0.0 0.0 0.00 0.00 0.00 74 1013.6
20260901094304 61 301 0.0 0.0 0.00 0.00 0.00 74 1013.6
20260901092804 61 301 0.0 0.0 0.00 0.00 0.00 74 1013.6
20260901092305 61 301 0.0 0.0 0.00 0.00 0.00 74 1013.6
20260901085804 62 294 0.0 0.0 0.00 0.00 0.00 74 1013.8
20260901085306 62 294 0.0 0.0 0.00 0.00 0.00 74 1013.8
20260901083305 62 294 0.0 0.0 0.00 0.00 0.00 75 1013.6
20260901082804 62 294 0.0 0.0 0.00 0.00 0.00 75 1013.6
20260901081804 62 294 0.0 0.0 0.00 0.00 0.00 75 1013.6
20260901080304 62 293 0.0 0.0 0.00 0.00 0.00 76 1013.7
20260901074304 62 293 0.0 0.0 0.00 0.00 0.00 75 1014.1
20260901073805 62 293 0.0 0.0 0.00 0.00 0.00 75 1014.1
20260901072805 62 293 0.0 0.0 0.00 0.00 0.00 76 1014.1
20260901072309 62 293 0.0 0.0 0.00 0.00 0.00 75 1014.1
20260901070805 62 293 0.0 0.0 0.00 0.00 0.00 76 1014.1
20260901070305 62 293 0.0 0.0 0.00 0.00 0.00 76 1014.1
20260901064804 62 293 0.0 0.0 0.00 0.00 0.00 77 1014.1
20260901063805 62 293 0.0 0.0 0.00 0.00 0.00 77 1014.2
20260901062805 62 293 0.0 0.0 0.00 0.00 0.00 77 1014.2
20260901061304 62 293 0.0 0.0 0.00 0.00 0.00 78 1014.2
20260901055804 62 293 0.0 0.0 0.00 0.00 0.00 77 1014.7
20260901054305 62 293 0.0 0.0 0.00 0.00 0.00 77 1014.7
20260901052307 62 293 0.0 0.0 0.00 0.00 0.00 76 1014.7
20260901045306 63 293 0.0 0.0 0.00 0.00 0.00 76 1014.1
20260901044805 63 293 0.0 0.0 0.00 0.00 0.00 75 1014.1
20260901044304 63 293 0.0 0.0 0.00 0.00 0.00 76 1014.1
20260901043805 63 293 0.0 0.0 0.00 0.00 0.00 75 1014.1
20260901042306 63 293 0.0 0.0 0.00 0.00 0.00 74 1014.1
20260901040305 64 293 0.0 0.0 0.00 0.00 0.00 72 1014.1
20260901035804 64 293 0.0 0.0 0.00 0.00 0.00 72 1014.1
20260901035306 64 293 0.0 0.0 0.00 0.00 0.00 72 1014.1
20260901034305 64 293 0.0 0.0 0.00 0.00 0.00 71 1014.2
20260901033305 65 293 0.0 0.0 0.00 0.00 0.00 72 1014.2
20260901032306 65 293 0.0 0.0 0.00 0.00 0.00 71 1014.2
20260901031305 65 293 0.0 0.0 0.00 0.00 0.00 71 1014.2
20260901025804 65 293 0.0 0.0 0.00 0.00 0.00 70 1014.2
20260901025306 65 293 0.0 0.0 0.00 0.00 0.00 70 1014.2
20260901024305 65 293 0.0 0.0 0.00 0.00 0.00 70 1014.4
20260901023304 65 293 0.0 0.0 0.00 0.00 0.00 69 1014.4
20260901022306 65 293 0.0 0.0 0.00 0.00 0.00 69 1014.1
20260901021805 65 293 0.0 0.0 0.00 0.00 0.00 68 1014.1
20260901021305 65 293 0.0 0.0 0.00 0.00 0.00 68 1014.1
20260901020806 65 293 0.0 0.0 0.00 0.00 0.00 68 1014.1
20260901014804 66 293 0.0 0.0 0.00 0.00 0.00 67 1014.2
20260901013804 66 293 0.0 0.0 0.00 0.00 0.00 67 1014.2
20260901013304 66 293 0.0 0.0 0.00 0.00 0.00 66 1014.1
20260901012804 66 293 0.0 0.0 0.00 0.00 0.00 66 1014.1
20260901012306 66 293 0.0 0.0 0.00 0.00 0.00 67 1014.1
20260901011304 66 293 0.0 0.0 0.00 0.00 0.00 66 1014.2
20260901005805 67 293 0.0 0.0 0.00 0.00 0.00 64 1014.2
20260901005307 68 293 0.0 0.0 0.00 0.00 0.00 64 1014.2
20260901004806 68 293 0.0 0.0 0.00 0.00 0.00 63 1014.2
20260901004304 68 293 0.0 0.0 0.00 0.00 0.00 62 1014.2
20260901003805 68 293 0.0 0.0 0.00 0.00 0.00 61 1014.2
20260901001804 69 293 0.0 0.0 0.00 0.00 0.00 59 1014.0
20260901001305 69 293 0.0 0.0 0.00 0.00 0.00 60 1014.0
20260901000804 70 293 0.0 0.0 0.00 0.00 0.00 61 1014.0
20260901000305 70 293 0.0 0.0 0.00 0.00 0.00 61 1014.0
20260831235306 70 293 0.0 0.0 0.00 0.00 0.00 61 1014.0
20260831234804 70 293 0.0 0.0 0.00 0.00 0.00 61 1014.0
20260831234305 70 293 0.0 0.0 0.00 0.00 0.00 61 1014.0
20260831233304 70 293 0.0 0.0 0.00 0.00 0.00 59 1014.0
20260831232804 70 293 0.0 0.0 0.00 0.00 0.00 55 1014.0
20260831232306 70 293 0.0 0.0 0.00 0.00 0.00 54 1014.0
20260831231805 70 293 0.0 0.0 0.00 0.00 0.00 53 1014.4
20260831230304 71 293 0.0 0.0 0.00 0.00 0.00 50 1014.4
20260831225804 71 293 0.0 0.0 0.00 0.00 0.00 49 1014.4
20260831224804 71 293 0.0 0.0 0.00 0.00 0.00 47 1014.4
20260831224304 71 293 0.0 0.0 0.00 0.00 0.00 48 1014.4
20260831222805 71 293 0.0 0.0 0.00 0.00 0.00 49 1014.1
20260831222307 71 293 0.0 0.0 0.00 0.00 0.00 50 1014.1
20260831220804 73 293 0.0 0.0 0.00 0.00 0.00 47 1014.1
20260831220304 73 293 0.0 0.0 0.00 0.00 0.00 46 1014.1
20260831214304 74 239 0.0 0.0 0.00 0.00 0.00 44 1014.1
20260831213805 74 239 0.0 0.0 0.00 0.00 0.00 42 1014.1
20260831213304 74 239 0.0 0.0 0.00 0.00 0.00 43 1014.1
20260831212805 74 239 0.0 0.0 0.00 0.00 0.00 45 1014.1
20260831211804 75 236 0.0 1.0 0.00 0.00 0.00 45 1014.2
20260831210804 75 238 0.0 0.0 0.00 0.00 0.00 45 1014.2
20260831204805 76 236 0.0 0.0 0.00 0.00 0.00 46 1014.6
20260831204304 76 232 0.0 0.0 0.00 0.00 0.00 45 1014.6
20260831203805 76 210 0.0 3.0 0.00 0.00 0.00 45 1014.6
20260831202306 75 257 0.0 0.0 0.00 0.00 0.00 45 1014.6
20260831201804 75 230 0.0 1.0 0.00 0.00 0.00 46 1014.6
20260831201305 75 16 0.0 3.0 0.00 0.00 0.00 50 1014.6
20260831200804 74 302 0.0 2.0 0.00 0.00 0.00 51 1015.1
20260831200304 74 154 0.0 3.0 0.00 0.00 0.00 51 1015.1
20260831195306 74 156 0.0 0.0 0.00 0.00 0.00 50 1015.1
20260831194305 74 156 0.0 0.0 0.00 0.00 0.00 49 1015.1
20260831190804 73 146 0.0 0.0 0.00 0.00 0.00 54 1015.1
20260831190305 74 146 0.0 0.0 0.00 0.00 0.00 53 1015.1
20260831185805 75 146 0.0 0.0 0.00 0.00 0.00 51 1015.1
20260831185306 75 146 0.0 0.0 0.00 0.00 0.00 49 1015.1
20260831183805 75 147 0.0 0.0 0.00 0.00 0.00 45 1015.5
20260831182805 75 153 0.0 0.0 0.00 0.00 0.00 45 1015.5
20260831181805 75 123 0.0 0.0 0.00 0.00 0.00 45 1015.5
20260831180804 75 123 0.0 1.0 0.00 0.00 0.00 45 1016.1
20260831180305 75 123 0.0 0.0 0.00 0.00 0.00 47 1016.1
20260831175306 75 130 0.0 0.0 0.00 0.00 0.00 45 1016.1
20260831174304 74 108 0.0 1.0 0.00 0.00 0.00 46 1016.1
20260831173305 74 106 0.0 0.0 0.00 0.00 0.00 44 1016.1
20260831171804 74 106 0.0 3.0 0.00 0.00 0.00 43 1016.7
20260831170304 73 63 0.0 5.0 0.00 0.00 0.00 43 1016.7
20260831164805 73 260 0.0 0.0 0.00 0.00 0.00 44 1016.7
20260831162805 72 265 0.0 0.0 0.00 0.00 0.00 48 1016.7
20260831161805 72 265 0.0 2.0 0.00 0.00 0.00 48 1016.7
20260831160805 73 26 0.0 0.0 0.00 0.00 0.00 50 1017.2
20260831155804 73 345 0.0 3.0 0.00 0.00 0.00 44 1017.2
20260831154805 73 228 1.0 3.0 0.00 0.00 0.00 49 1017.2
20260831152804 71 234 0.0 0.0 0.00 0.00 0.00 51 1017.2
20260831152306 71 233 0.0 2.0 0.00 0.00 0.00 54 1017.3
20260831151805 71 318 0.0 0.0 0.00 0.00 0.00 56 1017.3
20260831144804 70 254 0.0 1.0 0.00 0.00 0.00 57 1017.3
20260831144304 69 255 0.0 0.0 0.00 0.00 0.00 61 1017.3
20260831143805 69 264 0.0 0.0 0.00 0.00 0.00 63 1017.3
20260831143311 69 264 0.0 0.0 0.00 0.00 0.00 60 1017.3
20260831142804 69 264 0.0 0.0 0.00 0.00 0.00 60 1017.3